Погода в Бабаеве

Россия / Владимирская область     56°06′15″N   40°04′26″E
темп.,
°C
ветер,
м/с
пор.,
м/с
влажн.,
%
обл.,
%
осадки,
мм/ч
давл.,
гПа
погр.,
м
27 июля, вт
вт2700:00+18сз116072 0.0 102114
03:00+18з226193 0.0 102135
06:00+17сз22695 0.0 102153
09:00+24сз22455 0.0 1020563
12:00+27ссз343620 0.0 10202383
15:00+27ссз343722 0.0 10191975
18:00+25ссв35471 0.0 1018427
21:00+19ссв01653 0.0 101811
28 июля, ср
ср2800:00+19ю116027 0.0 101811
03:00+16з11766 0.1 101810
06:00+17вюв11735 0.0 101735
09:00+24ююв224859 0.0 1016503
12:00+28ююз3436100 0.0 10142037
15:00+23юз4761100 0.5 1013499
18:00+20ю2485100 2.8 1013153
21:00+18ю2292100 5.8 101250
29 июля, чт
чт2900:00+17ююв3895100 1.1 1010302
03:00+17ююв4998100 8.2 1007642
06:00+16юз2698100 2.7 1005367
09:00+18зсз369375 2.9 1005499
12:00+20зсз468198 0.3 1006782
15:00+23зсз4663100 0.3 10061275
18:00+22юз2469100 0.0 1006402
21:00+18юз358798 0.0 100692
30 июля, пт
пт3000:00+17зюз359220 0.4 100677
03:00+16зюз35945 0.7 100781
06:00+17зюз259240 0.1 1007129
09:00+24зюз246615 0.1 1007512
12:00+28зюз354415 0.0 10071977
15:00+26сз1258100 0.0 1006227
18:00+24ссв126685 0.0 100690
21:00+20ю117180 0.0 100611
31 июля, сб
сб3100:00+18юз2285100 0.1 100627
03:00+17зюз249089 0.2 100661
06:00+18юз268695 0.0 1006150
09:00+24зюз475213 0.0 1006720
12:00+28юз6104051 0.0 10052494
15:00+28з5104097 0.0 10042673
18:00+26юз4953100 0.0 10041192
21:00+20юз377594 0.1 1005163